Location: Carrières
(48.9495°N, 2.0407°E)
Time: 19:46:48
(UTC+00:00)

CZ-4 R/B - Pass Details

Date: 28 January 2023
Orbit: 526 x 587 km, 97.7° (Epoch: 26 March)

Event Time Altitude Azimuth Distance (km) Brightness Sun altitude
Rises 18:14:02 0° 145° (SE) 2,812 4.7 -15.1°
Reaches altitude 10° 18:16:17 10° 137° (SE) 1,912 3.8 -15.4°
Maximum altitude 18:20:09 39° 69° (ENE) 895 1.9 -16.0°
Drops below altitude 10° 18:24:00 10° 1° (N) 1,905 4.0 -16.7°
Sets 18:26:14 0° 354° (N) 2,800 4.9 -17.0°
